• In Deutschland
  • Länderverzeichnis
  • Für 7 Tage
  • Wassertemperatur
  • Satellitenkarten
  • Wetterkarte
  • Widgets
  • user-avatar
    Anmelden

    Stündliche Wetter Fellbach

    Heute, 21 Februar, Mittwoch

    Zeit Temperatur Niederschläge Wind Luftdruck Luftfeuchtigkeit
    00:00 -2°C° 0 mm 1 m/S 734 mmHg 86%
    01:00 -2°C° 0 mm 1 m/S 734 mmHg 88%
    02:00 -4°C° 0 mm 2 m/S 734 mmHg 89%
    03:00 -4°C° 0 mm 2 m/S 734 mmHg 90%
    04:00 -4°C° 0 mm 2 m/S 735 mmHg 91%
    05:00 -4°C° 0 mm 2 m/S 735 mmHg 91%
    06:00 -4°C° 0 mm 2 m/S 735 mmHg 91%
    07:00 -4°C° 0 mm 2 m/S 735 mmHg 91%
    08:00 -4°C° 0 mm 2 m/S 735 mmHg 86%
    09:00 -4°C° 0 mm 3 m/S 735 mmHg 80%
    10:00 -2°C° 0 mm 3 m/S 735 mmHg 75%
    11:00 -1°C° 0 mm 3 m/S 735 mmHg 70%
    12:00 -1°C° 0 mm 4 m/S 735 mmHg 66%
    13:00 0°C° 0 mm 4 m/S 735 mmHg 63%
    14:00 0°C° 0 mm 4 m/S 735 mmHg 62%
    15:00 0°C° 0 mm 4 m/S 735 mmHg 61%
    16:00 0°C° 0 mm 4 m/S 734 mmHg 61%
    17:00 -1°C° 0 mm 4 m/S 734 mmHg 66%
    18:00 -1°C° 0 mm 3 m/S 734 mmHg 71%
    19:00 -4°C° 0 mm 3 m/S 734 mmHg 76%
    20:00 -4°C° 0 mm 3 m/S 735 mmHg 76%
    21:00 -4°C° 0 mm 3 m/S 735 mmHg 77%
    22:00 -5°C° 0 mm 4 m/S 735 mmHg 77%
    23:00 -5°C° 0 mm 4 m/S 734 mmHg 78%

    Morgen, 22 Februar, Donnerstag

    Zeit Temperatur Niederschläge Wind Luftdruck Luftfeuchtigkeit
    00:00 -5°C° 0 mm 4 m/S 734 mmHg 78%
    01:00 -5°C° 0 mm 4 m/S 734 mmHg 79%
    02:00 -5°C° 0 mm 4 m/S 734 mmHg 79%
    03:00 -5°C° 0 mm 4 m/S 734 mmHg 79%
    04:00 -7°C° 0 mm 4 m/S 734 mmHg 79%
    05:00 -7°C° 0 mm 4 m/S 733 mmHg 79%
    06:00 -7°C° 0 mm 4 m/S 733 mmHg 79%
    07:00 -7°C° 0 mm 4 m/S 733 mmHg 79%
    08:00 -6°C° 0 mm 5 m/S 733 mmHg 75%
    09:00 -5°C° 0 mm 6 m/S 733 mmHg 70%
    10:00 -4°C° 0 mm 6 m/S 733 mmHg 66%
    11:00 -4°C° 0 mm 6 m/S 733 mmHg 62%
    12:00 -3°C° 0 mm 6 m/S 733 mmHg 58%
    13:00 -2°C° 0 mm 6 m/S 733 mmHg 54%
    14:00 -2°C° 0 mm 6 m/S 732 mmHg 54%
    15:00 -2°C° 0 mm 6 m/S 732 mmHg 54%
    16:00 -2°C° 0 mm 6 m/S 732 mmHg 53%
    17:00 -2°C° 0 mm 6 m/S 732 mmHg 55%
    18:00 -2°C° 0 mm 5 m/S 732 mmHg 57%
    19:00 -4°C° 0 mm 5 m/S 732 mmHg 59%
    20:00 -4°C° 0 mm 5 m/S 732 mmHg 60%
    21:00 -5°C° 0 mm 5 m/S 732 mmHg 61%
    22:00 -5°C° 0 mm 5 m/S 732 mmHg 62%
    23:00 -5°C° 0 mm 5 m/S 732 mmHg 64%

    übermorgen, 23 Februar, Freitag

    Zeit Temperatur Niederschläge Wind Luftdruck Luftfeuchtigkeit
    00:00 -6°C° 0 mm 5 m/S 732 mmHg 65%
    01:00 -6°C° 0 mm 5 m/S 732 mmHg 66%
    02:00 -6°C° 0 mm 5 m/S 732 mmHg 66%
    03:00 -6°C° 0 mm 5 m/S 732 mmHg 67%
    04:00 -5°C° 0 mm 4 m/S 732 mmHg 67%
    05:00 -5°C° 0 mm 4 m/S 732 mmHg 67%
    06:00 -5°C° 0 mm 4 m/S 732 mmHg 67%
    07:00 -5°C° 0 mm 4 m/S 732 mmHg 67%
    08:00 -6°C° 0 mm 5 m/S 732 mmHg 65%
    09:00 -5°C° 0 mm 5 m/S 732 mmHg 62%
    10:00 -4°C° 0 mm 5 m/S 732 mmHg 60%
    11:00 -2°C° 0 mm 5 m/S 732 mmHg 59%
    12:00 -2°C° 0 mm 6 m/S 732 mmHg 58%
    13:00 -1°C° 0 mm 6 m/S 732 mmHg 56%
    14:00 -1°C° 0 mm 6 m/S 731 mmHg 57%
    15:00 -1°C° 0 mm 6 m/S 731 mmHg 58%
    16:00 0°C° 0 mm 5 m/S 731 mmHg 58%
    17:00 0°C° 0 mm 5 m/S 731 mmHg 61%
    18:00 -1°C° 0 mm 5 m/S 732 mmHg 64%
    19:00 -2°C° 0 mm 5 m/S 732 mmHg 67%
    20:00 -2°C° 0 mm 5 m/S 732 mmHg 68%
    21:00 -4°C° 0 mm 5 m/S 732 mmHg 69%
    22:00 -4°C° 0 mm 5 m/S 732 mmHg 71%
    23:00 -4°C° 0 mm 5 m/S 732 mmHg 71%

    24 Februar, Samstag

    Zeit Temperatur Niederschläge Wind Luftdruck Luftfeuchtigkeit
    00:00 -4°C° 0 mm 5 m/S 732 mmHg 72%
    01:00 -4°C° 0 mm 5 m/S 732 mmHg 73%
    02:00 -4°C° 0 mm 5 m/S 732 mmHg 73%
    03:00 -4°C° 0 mm 5 m/S 732 mmHg 72%
    04:00 -5°C° 0 mm 5 m/S 732 mmHg 72%
    05:00 -5°C° 0 mm 5 m/S 732 mmHg 71%
    06:00 -5°C° 0 mm 5 m/S 732 mmHg 70%
    07:00 -5°C° 0 mm 5 m/S 733 mmHg 69%
    08:00 -4°C° 0 mm 5 m/S 733 mmHg 65%
    09:00 -3°C° 0 mm 6 m/S 733 mmHg 61%
    10:00 -3°C° 0 mm 6 m/S 733 mmHg 57%
    11:00 -2°C° 0 mm 7 m/S 733 mmHg 54%
    12:00 -1°C° 0 mm 7 m/S 733 mmHg 50%
    13:00 0°C° 0 mm 7 m/S 733 mmHg 47%
    14:00 0°C° 0 mm 7 m/S 732 mmHg 47%
    15:00 0°C° 0 mm 7 m/S 732 mmHg 47%
    16:00 0°C° 0 mm 7 m/S 732 mmHg 46%
    17:00 -1°C° 0 mm 7 m/S 733 mmHg 49%
    18:00 -3°C° 0 mm 7 m/S 733 mmHg 52%
    19:00 -4°C° 0 mm 6 m/S 733 mmHg 55%
    20:00 -6°C° 0 mm 7 m/S 734 mmHg 52%
    21:00 -6°C° 0 mm 7 m/S 734 mmHg 50%
    22:00 -7°C° 0 mm 7 m/S 734 mmHg 47%
    23:00 -7°C° 0 mm 7 m/S 734 mmHg 46%

    25 Februar, Sonntag

    Zeit Temperatur Niederschläge Wind Luftdruck Luftfeuchtigkeit
    00:00 -8°C° 0 mm 7 m/S 734 mmHg 46%
    01:00 -8°C° 0 mm 6 m/S 734 mmHg 45%
    02:00 -8°C° 0 mm 6 m/S 734 mmHg 45%
    03:00 -9°C° 0 mm 6 m/S 734 mmHg 46%
    04:00 -9°C° 0 mm 6 m/S 734 mmHg 46%
    05:00 -9°C° 0 mm 6 m/S 735 mmHg 47%
    06:00 -10°C° 0 mm 6 m/S 735 mmHg 48%
    07:00 -10°C° 0 mm 6 m/S 735 mmHg 49%
    08:00 -10°C° 0 mm 6 m/S 735 mmHg 48%
    09:00 -9°C° 0 mm 6 m/S 736 mmHg 46%
    10:00 -9°C° 0 mm 7 m/S 736 mmHg 45%
    11:00 -8°C° 0 mm 6 m/S 736 mmHg 41%
    12:00 -6°C° 0 mm 6 m/S 735 mmHg 38%
    13:00 -5°C° 0 mm 6 m/S 735 mmHg 35%
    14:00 -5°C° 0 mm 6 m/S 735 mmHg 34%
    15:00 -5°C° 0 mm 6 m/S 735 mmHg 33%
    16:00 -5°C° 0 mm 6 m/S 735 mmHg 31%
    17:00 -6°C° 0 mm 6 m/S 735 mmHg 34%
    18:00 -7°C° 0 mm 5 m/S 735 mmHg 36%
    19:00 -8°C° 0 mm 5 m/S 736 mmHg 38%
    20:00 -8°C° 0 mm 5 m/S 736 mmHg 39%
    21:00 -8°C° 0 mm 5 m/S 736 mmHg 41%
    22:00 -10°C° 0 mm 5 m/S 736 mmHg 42%
    23:00 -10°C° 0 mm 5 m/S 736 mmHg 43%

    26 Februar, Montag

    Zeit Temperatur Niederschläge Wind Luftdruck Luftfeuchtigkeit
    00:00 -10°C° 0 mm 5 m/S 736 mmHg 44%
    01:00 -11°C° 0 mm 5 m/S 736 mmHg 45%
    02:00 -11°C° 0 mm 5 m/S 736 mmHg 46%
    03:00 -11°C° 0 mm 5 m/S 736 mmHg 47%
    04:00 -12°C° 0 mm 5 m/S 736 mmHg 48%
    05:00 -12°C° 0 mm 5 m/S 736 mmHg 48%
    06:00 -12°C° 0 mm 5 m/S 736 mmHg 48%
    07:00 -11°C° 0 mm 4 m/S 736 mmHg 49%
    08:00 -12°C° 0 mm 5 m/S 736 mmHg 46%
    09:00 -11°C° 0 mm 5 m/S 736 mmHg 43%
    10:00 -11°C° 0 mm 5 m/S 736 mmHg 41%
    11:00 -10°C° 0 mm 5 m/S 736 mmHg 38%
    12:00 -8°C° 0 mm 5 m/S 736 mmHg 35%
    13:00 -7°C° 0 mm 5 m/S 735 mmHg 32%
    14:00 -7°C° 0 mm 5 m/S 735 mmHg 32%
    15:00 -7°C° 0 mm 5 m/S 735 mmHg 31%
    16:00 -7°C° 0 mm 5 m/S 735 mmHg 30%
    17:00 -8°C° 0 mm 4 m/S 735 mmHg 33%
    18:00 -8°C° 0 mm 4 m/S 735 mmHg 36%
    19:00 -8°C° 0 mm 3 m/S 735 mmHg 38%
    20:00 -8°C° 0 mm 3 m/S 735 mmHg 40%
    21:00 -10°C° 0 mm 4 m/S 734 mmHg 41%
    22:00 -10°C° 0 mm 4 m/S 734 mmHg 43%
    23:00 -10°C° 0 mm 4 m/S 734 mmHg 44%
    Mehr zeigen